Flag for Canada Weather past 2 weeks in Kenora, Ontario, Canada

Now
12 °F

Partly cloudy.


Feels Like: -3 °F
Forecast: 7 / 25 °F
Wind: 14 mph from Southwest

Location: Kenora

Current Time: Mar 6, 2015 at 12:36:36 AM

Latest Report: Mar 6, 2015 at 12:00 AM


Visibility: 15 mi

Pressure: 29.96 "Hg

Humidity: 73%

Dew point: 5 °F

Location of KenoraLocation

Historic Weather in Kenora — Graph

°F

Kenora temperature yesterday

Maximum temperature yesterday: 12 °F (at 10:00 PM)
Minimum temperature yesterday: -18 °F (at 5:00 AM)
Average temperature yesterday: -2 °F

Past Weeks' High & Low Weather Summary

 TemperatureHumidityPressure
High23 °F (Mar 3, 1:00 AM)93% (Feb 23, 8:51 PM)30.73 "Hg (Feb 23, 8:51 PM)
Low-29 °F (Feb 22, 6:00 AM)44% (Feb 27, 4:00 PM)29.55 "Hg (Feb 24, 2:00 AM)
Average-1 °F69%30.19 "Hg
* Reported Feb 18 11:00 PM — Mar 5 11:00 PM, Kenora, Weather by CustomWeather, © 2015

Note: Actual official high and low records may vary slightly from our data, if they occured in-between our weather recording intervals... More about our weather records

Advertising

Kenora weather history for previous 24 hours

 ConditionsComfort  
Time TempWeatherWind HumidityBarometerVisibility
11:00 PM
Thu, Mar 5
12 °FPartly cloudy.17 mph73%29.98 "Hg15 mi
10:00 PM12 °FPartly cloudy.20 mph73%30.00 "Hg15 mi
9:00 PM10 °FPassing clouds.20 mph72%30.04 "Hg15 mi
8:00 PM10 °FPartly cloudy.14 mph67%30.09 "Hg15 mi
7:00 PM10 °FPassing clouds.18 mph61%30.13 "Hg15 mi
6:00 PM10 °FPassing clouds.17 mph56%30.14 "Hg15 mi
5:00 PM10 °FPartly sunny.17 mph52%30.16 "Hg15 mi
4:00 PM10 °FPartly sunny.20 mph47%30.19 "Hg15 mi
3:00 PM9 °FScattered clouds.16 mph51%30.22 "Hg15 mi
2:00 PM5 °FPassing clouds.16 mph51%30.26 "Hg15 mi
1:00 PM3 °FSunny.15 mph50%30.29 "Hg15 mi
12:00 PM0 °FSunny.14 mph54%30.32 "Hg15 mi
11:00 AM-4 °FSunny.13 mph59%30.34 "Hg15 mi
10:00 AM-6 °FSunny.5 mph64%30.36 "Hg15 mi
9:00 AM-9 °FSunny.8 mph70%30.36 "Hg15 mi
8:00 AM-17 °FSunny.9 mph76%30.36 "Hg15 mi
7:00 AM-18 °FSunny.8 mph75%30.36 "Hg15 mi
6:00 AM-17 °FSunny.8 mph76%30.37 "Hg15 mi
5:00 AM-18 °FClear.7 mph83%30.37 "Hg15 mi
4:00 AM-17 °FClear.7 mph76%30.37 "Hg15 mi
3:00 AM-15 °FClear.6 mph76%30.38 "Hg15 mi
2:00 AM-15 °FClear.6 mph83%30.39 "Hg15 mi
1:00 AM-15 °FClear.6 mph83%30.39 "Hg15 mi
12:00 AM-13 °FClear.6 mph76%30.39 "Hg15 mi
Weather by CustomWeather, © 2015

See weather overviewHow to use our weather pages